OpenBCM V1.08-5-g2f4a (Linux)

Packet Radio Mailbox

IZ3LSV

[San Dona' di P. JN]

 Login: GUEST





  
I0OJJ  > KEPS     23.09.25 17:36l 317 Lines 14975 Bytes #143 (0) @ AMSAT
BID : ORB25266.1
Read: GUEST
Subj: 2Line Orbital Elements 25266.AMSAT
Path: IZ3LSV<ED1ZAC<EA5URD
Sent: 250923/0030Z @:EA5URD.EAMU.ESP.EU #:15267 XFBB7.07 Bid:ORB25266.1

R:250923/0025Z @:EA2RCF.EAVI.ESP.EU #:3607 [Vitoria] $:ORB25266.1
R:250923/0025z @:I0OJJ.ITA.EU [Rome] obcm1.08-11-2-gbfe9
From: I0OJJ @ I0OJJ.ITA.EU (Gustavo)
To:   KEPS @ AMSAT
X-Info: This message was generated automatically


QST de W1STR

AMSAT Orbital Elements for Amateur Satellites in TLE Format
From Orbital Analysis Office
New England Sci-Tech STEM Education Center
Natick MA September 23, 2025
To all radio amateurs


These element sets describe the orbits of various satellites 
in use by the amateur radio community. For details see:
www.amsat.org/keplerian-elements-formats/

A daily update of element sets is available at:
www.amsat.org/tle/daily-bulletin.txt
or without bulletin text:
www.amsat.org/tle/dailytle.txt


AO-07
1 07530U 74089B   25265.59404102 -.00000033  00000-0  83163-4 0  9990
2 07530 101.9986 270.9915 0011908 282.5812 199.8718 12.53691751326982
UO-11
1 14781U 84021B   25265.46434871  .00002526  00000-0  26957-3 0  9990
2 14781  97.7670 229.8398 0007738   2.5318 357.5937 14.89697941217258
AO-27
1 22825U 93061C   25265.46249765  .00000195  00000-0  91620-4 0  9998
2 22825  98.7264 327.4897 0008814 158.9350 201.2197 14.30831276668714
FO-29
1 24278U 96046B   25265.51968796  .00000029  00000-0  62959-4 0  9995
2 24278  98.5571 145.5251 0350886  70.7148 293.1592 13.53254104436967
NOAA-15
1 25338U 98030A   25265.56624190  .00000249  00000-0  11992-3 0  9994
2 25338  98.5313 288.1518 0011188  55.7962 304.4277 14.27019671423125
GO-32
1 25397U 98043D   25265.50193421  .00000143  00000-0  81859-4 0  9998
2 25397  98.9828 246.8685 0000231 271.4815  88.6337 14.24340931413223
ISS
1 25544U 98067A   25265.47345447  .00020692  00000-0  36284-3 0  9993
2 25544  51.6340 184.8663 0004275   7.3393 352.7658 15.50517623530256
NO-44
1 26931U 01043C   25265.49831098  .00000342  00000-0  15893-3 0  9999
2 26931  67.0501 216.5586 0007093 274.9291  85.1001 14.31783093252124
SO-50
1 27607U 02058C   25265.29883190  .00003405  00000-0  43077-3 0  9993
2 27607  64.5524 237.2164 0066868 312.1164  47.4268 14.81919027224749
CO-55
1 27844U 03031E   25265.51203272  .00000510  00000-0  24078-3 0  9994
2 27844  98.6789 272.4490 0008553 239.7139 120.3194 14.24073933153574
CO-57
1 27848U 03031J   25264.94746360  .00000438  00000-0  21225-3 0  9994
2 27848  98.6821 271.8177 0008349 261.4120  98.6113 14.23397214153214
RS-22
1 27939U 03042A   25265.52912539  .00001865  00000-0  30104-3 0  9996
2 27939  98.3372  77.5935 0012151  41.9255  50.4016 14.72607035176146
CO-58
1 28895U 05043F   25265.32731303  .00002667  00000-0  43884-3 0  9997
2 28895  98.2648  51.0963 0013930 339.2799  20.7840 14.71370846 62340
CO-65
1 32785U 08021C   25265.52815332  .00009633  00000-0  67321-3 0  9998
2 32785  97.7977 237.6032 0008426 205.8862 154.1944 15.05503884944865
CO-66
1 32791U 08021J   25265.51643285  .00023894  00000-0  10678-2 0  9997
2 32791  97.7373 248.1340 0005122 134.2377 225.9279 15.21322234946436
RS-30
1 32953U 08025A   25265.50752501  .00000038  00000-0  20115-3 0  9995
2 32953  82.5064 161.9429 0018824 173.4508 186.6822 12.43168183786430
NOAA-19
1 33591U 09005A   25265.47010414  .00000153  00000-0  10547-3 0  9995
2 33591  98.9877 330.7165 0014703  69.5645 290.7105 14.13409225856662
SRMSAT
1 37841U 11058D   25265.29106767  .00000514  00000-0  13561-3 0  9995
2 37841  19.9712 240.8849 0011928 136.1917 252.1090 14.11467096719924
ZACUBE-1
1 39417U 13066B   25265.45523716  .00008827  00000-0  74427-3 0  9995
2 39417  97.7912 222.0295 0045256  62.3647 298.2158 14.97603497640604
Delfi-N3xt
1 39428U 13066N   25265.53176003  .00016337  00000-0  16004-2 0  9990
2 39428  97.8294 182.0603 0083494  16.0999 344.2843 14.89724475634696
GOMX-1
1 39430U 13066Q   25265.53491317  .00003445  00000-0  53575-3 0  9992
2 39430  97.6705 117.7276 0130630 215.9271 143.3100 14.68032149630623
LO-74
1 39440U 13066AA  25265.41933558  .00005372  00000-0  53418-3 0  9995
2 39440  97.8566 209.3394 0060474 192.2783 167.6965 14.90728436637051
AO-73
1 39444U 13066AE  25265.47222773  .00014598  00000-0  10458-2 0  9991
2 39444  97.7928 227.9362 0042257  35.1894 325.2109 15.03762821639341
DTUSAT-2
1 40030U 14033W   25265.46728671  .00012681  00000-0  78993-3 0  9996
2 40030  98.0666 242.5193 0011088  70.8777 289.3650 15.09673741612212
EO-80
1 40032U 14033Y   25265.41573271  .00013381  00000-0  83153-3 0  9999
2 40032  98.0544 241.9735 0008878  20.6963 339.4623 15.09764970612185
LILACSAT-2
1 40908U 15049K   25265.54573247  .00019768  00000-0  47438-3 0  9997
2 40908  97.5015 288.5781 0010285 134.8563 225.3520 15.41358866554386
IO-86
1 40931U 15052B   25151.18580175  .00001241  00000-0  78118-4 0  9996
2 40931   6.0006  24.0987 0012733 338.8432  21.1169 14.78805930523159
Horyu-4
1 41340U 16012D   25265.34333872  .00043221  00000-0  97758-3 0  9996
2 41340  30.9954 145.0822 0005286  59.8644 300.2526 15.41892931528942
Lapan A3
1 41603U 16040E   25265.52310532  .00005734  00000-0  19621-3 0  9997
2 41603  97.1416 266.0845 0008873 250.8436 109.1846 15.30584036513833
CAS-2T
1 41847U 16066G   25265.47945998  .00002213  00000-0  32316-3 0  9994
2 41847  98.4122 339.0061 0344469 220.9211 136.5658 14.43739447466153
CAS-4B
1 42759U 17034B   25265.68822109  .00332493  47363-4  12049-2 0  9997
2 42759  42.9996  47.2940 0023962 318.4533  41.4520 15.87301617459141
CAS-4A
1 42761U 17034D   25265.51757804  .00418244  74399-4  12107-2 0  9994
2 42761  43.0028  43.5401 0024505 323.7173  36.2040 15.91633177459150
TechnoSat
1 42829U 17042E   25265.43568433  .00005274  00000-0  40145-3 0  9990
2 42829  97.4004  69.2311 0016286 290.1671  69.7802 15.02400842446464
AO-91
1 43017U 17073E   25265.53884586  .00013091  00000-0  64573-3 0  9992
2 43017  97.5059 133.6829 0168006 168.0018 192.5290 15.06426043425009
S-Net D
1 43186U 18014G   25265.24158257  .00007721  00000-0  44258-3 0  9993
2 43186  97.5498 167.0773 0007499 214.5762 145.4982 15.12841061418198
S-Net B
1 43187U 18014H   25265.31452231  .00007970  00000-0  45693-3 0  9991
2 43187  97.5506 167.1263 0008309 209.7223 150.3537 15.12821353418208
S-Net A
1 43188U 18014J   25265.30773927  .00007761  00000-0  44475-3 0  9994
2 43188  97.5515 167.2838 0008183 210.3723 149.7035 15.12847294418208
S-Net C
1 43189U 18014K   25265.44947058  .00008218  00000-0  47088-3 0  9999
2 43189  97.5530 167.4561 0009891 203.3633 156.7150 15.12819316416770
Ten-Koh
1 43677U 18084G   25265.47197007  .00004080  00000-0  32410-3 0  9998
2 43677  98.0789  81.8873 0006330 265.2962  94.7538 15.01053687375972
PO-101
1 43678U 18084H   25265.48847766  .00003730  00000-0  31465-3 0  9994
2 43678  98.1066  85.6905 0008234 300.1852  59.8553 14.98790022376091
QO-100
1 43700U 18090A   25265.56572576  .00000000  00000-0  00000-0 0  9995
2 43700   0.0246 175.5510 0001330  37.1762  18.3977  1.00270253 24994
MinXSS-2
1 43758U 18099A   25265.16384955  .00028602  00000-0  10111-2 0  9999
2 43758  97.4919 331.7086 0012110 143.9345 216.2714 15.29075736372932
AO-95
1 43770U 18099N   25265.38721273  .00015869  00000-0  75743-3 0  9999
2 43770  97.4805 322.3787 0009981 199.1555 160.9306 15.19100983372453
SNUSat 2
1 43782U 18099AA  25265.40552179  .00012288  00000-0  63948-3 0  9998
2 43782  97.4489 318.2698 0012828 144.9759 215.2320 15.16102896372370
SnugLite
1 43784U 18099AC  25265.13066020  .00014570  00000-0  68944-3 0  9992
2 43784  97.4302 317.7965 0004683 135.8622 224.2987 15.19452855372505
ITASat 1
1 43786U 18099AE  25265.40127093  .00010577  00000-0  58093-3 0  9999
2 43786  97.4461 317.4537 0013609 196.9625 163.1154 15.14221633372313
EAGLET 1
1 43790U 18099AJ  25265.09212144  .00007869  00000-0  48849-3 0  9999
2 43790  97.4657 316.7359 0011830 183.5329 176.5819 15.09905304371836
ESEO
1 43792U 18099AL  25265.07353145  .00003867  00000-0  29141-3 0  9994
2 43792  97.4369 308.5509 0012703 163.9676 196.1954 15.02982110371517
JO-97
1 43803U 18099AX  25265.38892188  .00020631  00000-0  87231-3 0  9998
2 43803  97.4550 323.6282 0008452 133.3708 226.8234 15.23216070372714
Suomi 100
1 43804U 18099AY  25265.12347790  .00018438  00000-0  84725-3 0  9992
2 43804  97.4617 322.3358 0013067 139.6588 220.5619 15.20350782372570
ISAT
1 43879U 18111D   25265.34158502  .00036915  00000-0  11110-2 0  9991
2 43879  97.5879 182.2958 0008202 165.0732 195.0754 15.34239689369738
UWE-4
1 43880U 18111E   25265.49732712  .00030392  00000-0  10725-2 0  9994
2 43880  97.5823 180.1273 0010413 186.8285 173.2814 15.29139366369647
Sparrow
1 43881U 18111F   25265.29573259  .00039570  00000-0  11336-2 0  9998
2 43881  97.6045 185.5671 0004636 193.8829 166.2287 15.35802675369832
Prox-1
1 44339U 19036A   25265.53040035  .00022313  00000-0  26999-2 0  9990
2 44339  23.9963  91.3548 0006266 188.0762 171.9636 14.82153742333592
Taurus 1
1 44530U 19059C   25265.67054409  .00014346  00000-0  25548-2 0  9999
2 44530  98.6184  50.2077 0009349  72.8689 287.3537 14.67146420319340
Duchifat 3
1 44854U 19089C   25265.08348050  .00132672  00000-0  16797-2 0  9993
2 44854  36.9389  45.9615 0006199  51.0305 309.1006 15.58120071319253
TO-108
1 44881U 19093C   25265.49103832  .00001499  00000-0  17832-3 0  9994
2 44881  97.7845 338.9172 0012438 244.5584 115.4344 14.85807062311659
FloripaSat 1
1 44885U 19093G   25265.48477722  .00009542  00000-0  77905-3 0  9993
2 44885  97.8159 353.3619 0009032 214.4511 145.6128 14.99600488312464
RS-44
1 44909U 19096E   25265.39466064  .00000056  00000-0  17270-3 0  9990
2 44909  82.5243 157.6612 0218392  50.6424 311.3804 12.79743738268092
UPMSat 2
1 46276U 20061E   25265.20390215  .00362240  53295-4  97593-3 0  9997
2 46276  97.2286 344.4681 0003572 227.6372 132.4601 15.94336667281960
